Time,TemperatureF,DewpointF,PressureIn,WindDirection,WindDirectionDegrees,WindSpeedMPH,WindSpeedGustMPH,Humidity,HourlyPrecipIn,Conditions,Clouds,dailyrainin,SoftwareType,DateUTC
2013-01-07 00:00:00,38.0,35.3,30.14,South,180,0.0,0.0,90,0.00,,---,0.00,VWS V14.01,2013-01-07 05:00:00,
2013-01-07 00:01:00,38.0,35.3,30.14,SE,135,0.0,1.0,90,0.00,,---,0.00,VWS V14.01,2013-01-07 05:01:00,
2013-01-07 00:02:00,38.0,35.3,30.14,South,180,0.0,0.0,90,0.00,,---,0.00,VWS V14.01,2013-01-07 05:02:00,
2013-01-07 00:07:00,38.0,35.3,30.14,South,180,0.0,0.0,90,0.00,,---,0.00,VWS V14.01,2013-01-07 05:07:00,
2013-01-07 00:12:00,38.0,35.3,30.14,South,180,0.0,2.0,90,0.00,,---,0.00,VWS V14.01,2013-01-07 05:12:00,
2013-01-07 00:17:00,38.0,35.3,30.14,South,180,2.0,3.0,90,0.00,,---,0.00,VWS V14.01,2013-01-07 05:17:00,
2013-01-07 00:22:00,38.0,35.0,30.14,ESE,112,0.0,1.0,89,0.00,,---,0.00,VWS V14.01,2013-01-07 05:22:00,
2013-01-07 00:27:00,39.0,36.0,30.14,SE,135,0.0,3.0,89,0.00,,---,0.00,VWS V14.01,2013-01-07 05:27:00,
2013-01-07 00:32:00,38.0,35.3,30.14,SSE,157,1.0,2.0,90,0.00,,---,0.00,VWS V14.01,2013-01-07 05:32:00,
2013-01-07 00:37:00,38.0,35.3,30.14,SSW,202,0.0,0.0,90,0.00,,---,0.00,VWS V14.01,2013-01-07 05:37:00,
2013-01-07 00:42:00,38.0,35.3,30.14,SE,135,0.0,0.0,90,0.00,,---,0.00,VWS V14.01,2013-01-07 05:42:00,
2013-01-07 00:47:00,38.0,35.6,30.14,South,180,0.0,1.0,91,0.00,,---,0.00,VWS V14.01,2013-01-07 05:47:00,
2013-01-07 00:52:00,38.0,35.6,30.15,SE,135,0.0,2.0,91,0.00,,---,0.00,VWS V14.01,2013-01-07 05:52:00,
2013-01-07 00:57:00,38.0,35.6,30.15,SE,135,0.0,1.0,91,0.00,,---,0.00,VWS V14.01,2013-01-07 05:57:00,
2013-01-07 01:02:00,38.0,35.6,30.15,SSE,157,0.0,1.0,91,0.00,,---,0.00,VWS V14.01,2013-01-07 06:02:00,
2013-01-07 01:07:00,38.0,35.6,30.15,SSE,157,0.0,0.0,91,0.00,,---,0.00,VWS V14.01,2013-01-07 06:07:00,
2013-01-07 01:12:00,38.0,35.9,30.16,South,180,0.0,0.0,92,0.00,,---,0.00,VWS V14.01,2013-01-07 06:12:00,
2013-01-07 01:17:00,37.0,35.2,30.16,South,180,0.0,0.0,93,0.00,,---,0.00,VWS V14.01,2013-01-07 06:17:00,
2013-01-07 01:22:00,37.0,35.2,30.16,SSW,202,0.0,0.0,93,0.00,,---,0.00,VWS V14.01,2013-01-07 06:22:00,
2013-01-07 01:27:00,37.0,35.2,30.16,SSE,157,0.0,0.0,93,0.00,,---,0.00,VWS V14.01,2013-01-07 06:27:00,
2013-01-07 01:32:00,37.0,35.4,30.16,SSE,157,0.0,0.0,94,0.00,,---,0.00,VWS V14.01,2013-01-07 06:32:00,
2013-01-07 01:37:00,36.0,34.4,30.16,SSW,202,0.0,2.0,94,0.00,,---,0.00,VWS V14.01,2013-01-07 06:37:00,
2013-01-07 01:42:00,36.0,34.7,30.16,SSE,157,0.0,0.0,95,0.00,,---,0.00,VWS V14.01,2013-01-07 06:42:00,
2013-01-07 01:47:00,36.0,34.7,30.16,SSE,157,0.0,0.0,95,0.00,,---,0.00,VWS V14.01,2013-01-07 06:47:00,
2013-01-07 01:52:00,36.0,35.0,30.17,South,180,0.0,0.0,96,0.00,,---,0.00,VWS V14.01,2013-01-07 06:52:00,
2013-01-07 01:57:00,35.0,34.0,30.17,South,180,0.0,0.0,96,0.00,,---,0.00,VWS V14.01,2013-01-07 06:57:00,
2013-01-07 02:02:00,35.0,34.0,30.17,South,180,0.0,0.0,96,0.00,,---,0.00,VWS V14.01,2013-01-07 07:02:00,
2013-01-07 02:07:00,35.0,34.2,30.17,South,180,0.0,0.0,97,0.00,,---,0.00,VWS V14.01,2013-01-07 07:07:00,
2013-01-07 02:12:00,35.0,34.5,30.18,South,180,0.0,0.0,98,0.00,,---,0.00,VWS V14.01,2013-01-07 07:12:00,
2013-01-07 02:17:00,35.0,34.5,30.18,South,180,0.0,0.0,98,0.00,,---,0.00,VWS V14.01,2013-01-07 07:17:00,
2013-01-07 02:23:00,35.0,34.5,30.18,South,180,0.0,0.0,98,0.00,,---,0.00,VWS V14.01,2013-01-07 07:23:00,
2013-01-07 02:28:00,35.0,34.8,30.18,South,180,0.0,0.0,99,0.00,,---,0.00,VWS V14.01,2013-01-07 07:28:00,
2013-01-07 02:33:00,35.0,34.8,30.19,South,180,0.0,0.0,99,0.00,,---,0.00,VWS V14.01,2013-01-07 07:33:00,
2013-01-07 02:38:00,35.0,34.5,30.19,SE,135,0.0,0.0,98,0.00,,---,0.00,VWS V14.01,2013-01-07 07:38:00,
2013-01-07 02:43:00,35.0,34.5,30.19,SE,135,0.0,0.0,98,0.00,,---,0.00,VWS V14.01,2013-01-07 07:43:00,
2013-01-07 02:48:00,35.0,34.5,30.19,SE,135,0.0,0.0,98,0.00,,---,0.00,VWS V14.01,2013-01-07 07:48:00,
2013-01-07 02:53:00,34.0,34.0,30.20,SSE,157,0.0,0.0,100,0.00,,---,0.00,VWS V14.01,2013-01-07 07:53:00,
2013-01-07 02:58:00,35.0,35.0,30.20,South,180,0.0,0.0,100,0.00,,---,0.00,VWS V14.01,2013-01-07 07:58:00,
2013-01-07 03:03:00,35.0,35.0,30.20,SSW,202,0.0,0.0,100,0.00,,---,0.00,VWS V14.01,2013-01-07 08:03:00,
2013-01-07 03:08:00,35.0,35.0,30.20,SSE,157,0.0,0.0,100,0.00,,---,0.00,VWS V14.01,2013-01-07 08:08:00,
2013-01-07 03:13:00,35.0,34.8,30.20,South,180,0.0,0.0,99,0.00,,---,0.00,VWS V14.01,2013-01-07 08:13:00,
2013-01-07 03:18:00,36.0,35.5,30.20,South,180,0.0,1.0,98,0.00,,---,0.00,VWS V14.01,2013-01-07 08:18:00,
2013-01-07 03:23:00,36.0,35.5,30.20,South,180,0.0,0.0,98,0.00,,---,0.00,VWS V14.01,2013-01-07 08:23:00,
2013-01-07 03:28:00,36.0,35.5,30.20,South,180,0.0,3.0,98,0.00,,---,0.00,VWS V14.01,2013-01-07 08:28:00,
2013-01-07 03:33:00,36.0,35.2,30.20,SSW,202,0.0,3.0,97,0.00,,---,0.00,VWS V14.01,2013-01-07 08:33:00,
2013-01-07 03:38:00,36.0,35.2,30.20,SSW,202,0.0,0.0,97,0.00,,---,0.00,VWS V14.01,2013-01-07 08:38:00,
2013-01-07 03:43:00,36.0,35.2,30.20,SSE,157,0.0,1.0,97,0.00,,---,0.00,VWS V14.01,2013-01-07 08:43:00,
2013-01-07 03:48:00,36.0,35.2,30.20,South,180,0.0,0.0,97,0.00,,---,0.00,VWS V14.01,2013-01-07 08:48:00,
2013-01-07 03:54:00,36.0,35.0,30.20,SSE,157,0.0,0.0,96,0.00,,---,0.00,VWS V14.01,2013-01-07 08:54:00,
2013-01-07 03:59:00,36.0,35.0,30.20,South,180,0.0,1.0,96,0.00,,---,0.00,VWS V14.01,2013-01-07 08:59:00,
2013-01-07 04:04:00,36.0,35.2,30.21,South,180,0.0,0.0,97,0.00,,---,0.00,VWS V14.01,2013-01-07 09:04:00,
2013-01-07 04:09:00,36.0,35.2,30.21,South,180,1.0,1.0,97,0.00,,---,0.00,VWS V14.01,2013-01-07 09:09:00,
2013-01-07 04:14:00,36.0,35.2,30.21,SSW,202,0.0,0.0,97,0.00,,---,0.00,VWS V14.01,2013-01-07 09:14:00,
2013-01-07 04:19:00,36.0,35.2,30.21,South,180,0.0,0.0,97,0.00,,---,0.00,VWS V14.01,2013-01-07 09:19:00,
2013-01-07 04:24:00,36.0,35.2,30.22,South,180,0.0,1.0,97,0.00,,---,0.00,VWS V14.01,2013-01-07 09:24:00,
2013-01-07 04:29:00,36.0,35.5,30.22,South,180,0.0,0.0,98,0.00,,---,0.00,VWS V14.01,2013-01-07 09:29:00,
2013-01-07 04:34:00,36.0,35.5,30.22,SSE,157,0.0,0.0,98,0.00,,---,0.00,VWS V14.01,2013-01-07 09:34:00,
2013-01-07 04:39:00,37.0,36.2,30.22,South,180,0.0,0.0,97,0.00,,---,0.00,VWS V14.01,2013-01-07 09:39:00,
2013-01-07 04:44:00,37.0,36.0,30.22,South,180,0.0,0.0,96,0.00,,---,0.00,VWS V14.01,2013-01-07 09:44:00,
2013-01-07 04:49:00,37.0,36.0,30.22,SSE,157,0.0,1.0,96,0.00,,---,0.00,VWS V14.01,2013-01-07 09:49:00,
2013-01-07 04:54:00,37.0,36.0,30.22,South,180,0.0,0.0,96,0.00,,---,0.00,VWS V14.01,2013-01-07 09:54:00,
2013-01-07 04:59:00,37.0,36.0,30.22,SSE,157,0.0,0.0,96,0.00,,---,0.00,VWS V14.01,2013-01-07 09:59:00,
2013-01-07 05:04:00,36.0,35.0,30.23,SSE,157,0.0,0.0,96,0.00,,---,0.00,VWS V14.01,2013-01-07 10:04:00,
2013-01-07 05:09:00,36.0,35.2,30.23,SSE,157,0.0,0.0,97,0.00,,---,0.00,VWS V14.01,2013-01-07 10:09:00,
2013-01-07 05:14:00,36.0,35.2,30.24,South,180,0.0,0.0,97,0.00,,---,0.00,VWS V14.01,2013-01-07 10:14:00,
2013-01-07 05:19:00,35.0,34.5,30.24,South,180,0.0,0.0,98,0.00,,---,0.00,VWS V14.01,2013-01-07 10:19:00,
2013-01-07 05:25:00,35.0,34.8,30.24,South,180,0.0,0.0,99,0.00,,---,0.00,VWS V14.01,2013-01-07 10:25:00,
2013-01-07 05:30:00,35.0,34.5,30.25,SSW,202,1.0,2.0,98,0.00,,---,0.00,VWS V14.01,2013-01-07 10:30:00,
2013-01-07 05:35:00,35.0,34.8,30.25,South,180,0.0,0.0,99,0.00,,---,0.00,VWS V14.01,2013-01-07 10:35:00,
2013-01-07 05:40:00,35.0,34.8,30.25,SSE,157,0.0,0.0,99,0.00,,---,0.00,VWS V14.01,2013-01-07 10:40:00,
2013-01-07 05:45:00,35.0,35.0,30.25,South,180,0.0,1.0,100,0.00,,---,0.00,VWS V14.01,2013-01-07 10:45:00,
2013-01-07 05:50:00,35.0,34.8,30.26,South,180,0.0,1.0,99,0.00,,---,0.00,VWS V14.01,2013-01-07 10:50:00,
2013-01-07 05:55:00,35.0,35.0,30.26,SSE,157,0.0,0.0,100,0.00,,---,0.00,VWS V14.01,2013-01-07 10:55:00,
2013-01-07 06:00:00,35.0,35.0,30.26,South,180,0.0,0.0,100,0.00,,---,0.00,VWS V14.01,2013-01-07 11:00:00,
2013-01-07 06:05:00,35.0,35.0,30.26,South,180,0.0,0.0,100,0.00,,---,0.00,VWS V14.01,2013-01-07 11:05:00,
2013-01-07 06:10:00,35.0,35.0,30.27,SSW,202,0.0,0.0,100,0.00,,---,0.00,VWS V14.01,2013-01-07 11:10:00,
2013-01-07 06:15:00,35.0,35.0,30.27,South,180,0.0,0.0,100,0.00,,---,0.00,VWS V14.01,2013-01-07 11:15:00,
2013-01-07 06:20:00,35.0,35.0,30.28,SSE,157,1.0,1.0,100,0.00,,---,0.00,VWS V14.01,2013-01-07 11:20:00,
2013-01-07 06:25:00,35.0,35.0,30.28,South,180,0.0,0.0,100,0.00,,---,0.00,VWS V14.01,2013-01-07 11:25:00,
2013-01-07 06:31:00,35.0,35.0,30.28,South,180,1.0,1.0,100,0.00,,---,0.00,VWS V14.01,2013-01-07 11:31:00,
2013-01-07 06:36:00,35.0,35.0,30.28,South,180,0.0,1.0,100,0.00,,---,0.00,VWS V14.01,2013-01-07 11:36:00,
2013-01-07 06:41:00,35.0,35.0,30.30,SSW,202,0.0,0.0,100,0.00,,---,0.00,VWS V14.01,2013-01-07 11:41:00,
2013-01-07 06:46:00,35.0,35.0,30.30,SSW,202,0.0,0.0,100,0.00,,---,0.00,VWS V14.01,2013-01-07 11:46:00,
2013-01-07 06:51:00,36.0,35.8,30.30,South,180,0.0,0.0,99,0.00,,---,0.00,VWS V14.01,2013-01-07 11:51:00,
2013-01-07 06:57:00,35.0,35.0,30.30,South,180,0.0,0.0,100,0.00,,---,0.00,VWS V14.01,2013-01-07 11:57:00,
2013-01-07 07:02:00,35.0,34.8,30.30,SE,135,0.0,0.0,99,0.00,,---,0.00,VWS V14.01,2013-01-07 12:02:00,
2013-01-07 07:07:00,36.0,36.0,30.30,South,180,0.0,2.0,100,0.00,,---,0.00,VWS V14.01,2013-01-07 12:07:00,
2013-01-07 07:12:00,36.0,36.0,30.31,SSW,202,0.0,0.0,100,0.00,,---,0.00,VWS V14.01,2013-01-07 12:12:00,
2013-01-07 07:17:00,35.0,35.0,30.31,SSE,157,0.0,0.0,100,0.00,,---,0.00,VWS V14.01,2013-01-07 12:17:00,
2013-01-07 07:22:00,35.0,35.0,30.31,SSE,157,0.0,0.0,100,0.00,,---,0.00,VWS V14.01,2013-01-07 12:22:00,
2013-01-07 07:27:00,35.0,35.0,30.31,SSE,157,0.0,0.0,100,0.00,,---,0.00,VWS V14.01,2013-01-07 12:27:00,
2013-01-07 07:32:00,34.0,34.0,30.31,SE,135,0.0,0.0,100,0.00,,---,0.00,VWS V14.01,2013-01-07 12:32:00,
2013-01-07 07:37:00,35.0,35.0,30.31,SE,135,0.0,0.0,100,0.00,,---,0.00,VWS V14.01,2013-01-07 12:37:00,
2013-01-07 07:42:00,35.0,35.0,30.32,SSE,157,0.0,0.0,100,0.00,,---,0.00,VWS V14.01,2013-01-07 12:42:00,
2013-01-07 07:47:00,36.0,36.0,30.32,SSE,157,0.0,0.0,100,0.00,,---,0.00,VWS V14.01,2013-01-07 12:47:00,
2013-01-07 07:52:00,36.0,36.0,30.33,SE,135,0.0,0.0,100,0.00,,---,0.00,VWS V14.01,2013-01-07 12:52:00,
2013-01-07 07:57:00,36.0,36.0,30.33,SE,135,0.0,0.0,100,0.00,,---,0.00,VWS V14.01,2013-01-07 12:57:00,
2013-01-07 08:02:00,37.0,37.0,30.34,South,180,0.0,0.0,100,0.00,,---,0.00,VWS V14.01,2013-01-07 13:02:00,
2013-01-07 08:07:00,37.0,36.8,30.34,South,180,0.0,0.0,99,0.00,,---,0.00,VWS V14.01,2013-01-07 13:07:00,
2013-01-07 08:12:00,37.0,37.0,30.34,South,180,0.0,0.0,100,0.00,,---,0.00,VWS V14.01,2013-01-07 13:12:00,
2013-01-07 08:17:00,37.0,37.0,30.34,South,180,0.0,0.0,100,0.00,,---,0.00,VWS V14.01,2013-01-07 13:17:00,
2013-01-07 08:22:00,37.0,36.8,30.34,SSE,157,0.0,0.0,99,0.00,,---,0.00,VWS V14.01,2013-01-07 13:22:00,
2013-01-07 08:27:00,38.0,37.2,30.34,SSW,202,0.0,1.0,97,0.00,,---,0.00,VWS V14.01,2013-01-07 13:27:00,
2013-01-07 08:33:00,39.0,37.7,30.35,South,180,0.0,3.0,95,0.00,,---,0.00,VWS V14.01,2013-01-07 13:33:00,
2013-01-07 08:38:00,40.0,38.1,30.35,South,180,0.0,2.0,93,0.00,,---,0.00,VWS V14.01,2013-01-07 13:38:00,
2013-01-07 08:43:00,40.0,37.9,30.35,SSW,202,0.0,0.0,92,0.00,,---,0.00,VWS V14.01,2013-01-07 13:43:00,
2013-01-07 08:48:00,41.0,38.3,30.35,SSE,157,0.0,1.0,90,0.00,,---,0.00,VWS V14.01,2013-01-07 13:48:00,
2013-01-07 08:53:00,42.0,39.3,30.35,South,180,0.0,0.0,90,0.00,,---,0.00,VWS V14.01,2013-01-07 13:53:00,
2013-01-07 08:58:00,42.0,38.7,30.35,SSW,202,0.0,0.0,88,0.00,,---,0.00,VWS V14.01,2013-01-07 13:58:00,
2013-01-07 09:03:00,43.0,40.0,30.35,SSW,202,0.0,0.0,89,0.00,,---,0.00,VWS V14.01,2013-01-07 14:03:00,
2013-01-07 09:08:00,42.0,38.4,30.35,South,180,0.0,2.0,87,0.00,,---,0.00,VWS V14.01,2013-01-07 14:08:00,
2013-01-07 09:13:00,43.0,39.4,30.36,South,180,1.0,3.0,87,0.00,,---,0.00,VWS V14.01,2013-01-07 14:13:00,
2013-01-07 09:18:00,43.0,39.1,30.36,South,180,1.0,2.0,86,0.00,,---,0.00,VWS V14.01,2013-01-07 14:18:00,
2013-01-07 09:23:00,43.0,39.1,30.36,South,180,2.0,2.0,86,0.00,,---,0.00,VWS V14.01,2013-01-07 14:23:00,
2013-01-07 09:28:00,44.0,39.8,30.36,SSE,157,2.0,4.0,85,0.00,,---,0.00,VWS V14.01,2013-01-07 14:28:00,
2013-01-07 09:33:00,44.0,39.5,30.36,West,270,0.0,3.0,84,0.00,,---,0.00,VWS V14.01,2013-01-07 14:33:00,
2013-01-07 09:38:00,44.0,39.5,30.36,South,180,2.0,3.0,84,0.00,,---,0.00,VWS V14.01,2013-01-07 14:38:00,
2013-01-07 09:43:00,44.0,38.9,30.36,South,180,0.0,2.0,82,0.00,,---,0.00,VWS V14.01,2013-01-07 14:43:00,
2013-01-07 09:48:00,45.0,39.5,30.36,SW,225,0.0,3.0,81,0.00,,---,0.00,VWS V14.01,2013-01-07 14:48:00,
2013-01-07 09:53:00,45.0,38.9,30.36,SW,225,2.0,4.0,79,0.00,,---,0.00,VWS V14.01,2013-01-07 14:53:00,
2013-01-07 09:58:00,45.0,38.9,30.36,South,180,0.0,3.0,79,0.00,,---,0.00,VWS V14.01,2013-01-07 14:58:00,
2013-01-07 10:03:00,45.0,38.2,30.36,SSW,202,2.0,3.0,77,0.00,,---,0.00,VWS V14.01,2013-01-07 15:03:00,
2013-01-07 10:08:00,45.0,38.2,30.36,SW,225,1.0,3.0,77,0.00,,---,0.00,VWS V14.01,2013-01-07 15:08:00,
2013-01-07 10:13:00,45.0,37.9,30.37,SW,225,0.0,3.0,76,0.00,,---,0.00,VWS V14.01,2013-01-07 15:13:00,
2013-01-07 10:18:00,45.0,37.6,30.37,SW,225,0.0,0.0,75,0.00,,---,0.00,VWS V14.01,2013-01-07 15:18:00,
2013-01-07 10:23:00,46.0,37.5,30.37,WSW,247,0.0,3.0,72,0.00,,---,0.00,VWS V14.01,2013-01-07 15:23:00,
2013-01-07 10:28:00,46.0,37.5,30.37,South,180,0.0,0.0,72,0.00,,---,0.00,VWS V14.01,2013-01-07 15:28:00,
2013-01-07 10:33:00,47.0,38.1,30.38,SW,225,0.0,2.0,71,0.00,,---,0.00,VWS V14.01,2013-01-07 15:33:00,
2013-01-07 10:38:00,47.0,37.7,30.38,South,180,2.0,3.0,70,0.00,,---,0.00,VWS V14.01,2013-01-07 15:38:00,
2013-01-07 10:43:00,48.0,38.7,30.37,SW,225,0.0,0.0,70,0.00,,---,0.00,VWS V14.01,2013-01-07 15:43:00,
2013-01-07 10:48:00,48.0,38.7,30.37,SSE,157,1.0,4.0,70,0.00,,---,0.00,VWS V14.01,2013-01-07 15:48:00,
2013-01-07 10:53:00,48.0,38.0,30.36,SSW,202,0.0,0.0,68,0.00,,---,0.00,VWS V14.01,2013-01-07 15:53:00,
2013-01-07 10:58:00,48.0,38.3,30.36,South,180,3.0,3.0,69,0.00,,---,0.00,VWS V14.01,2013-01-07 15:58:00,
2013-01-07 11:03:00,47.0,37.0,30.37,SSW,202,0.0,0.0,68,0.00,,---,0.00,VWS V14.01,2013-01-07 16:03:00,
2013-01-07 11:08:00,47.0,35.9,30.37,South,180,0.0,3.0,65,0.00,,---,0.00,VWS V14.01,2013-01-07 16:08:00,
2013-01-07 11:13:00,47.0,36.2,30.36,SSW,202,0.0,2.0,66,0.00,,---,0.00,VWS V14.01,2013-01-07 16:13:00,
2013-01-07 11:18:00,47.0,35.5,30.36,SW,225,0.0,3.0,64,0.00,,---,0.00,VWS V14.01,2013-01-07 16:18:00,
2013-01-07 11:23:00,48.0,36.4,30.37,South,180,0.0,3.0,64,0.00,,---,0.00,VWS V14.01,2013-01-07 16:23:00,
2013-01-07 11:28:00,49.0,35.7,30.37,SSW,202,1.0,8.0,60,0.00,,---,0.00,VWS V14.01,2013-01-07 16:28:00,
2013-01-07 11:33:00,48.0,35.6,30.36,SSW,202,0.0,5.0,62,0.00,,---,0.00,VWS V14.01,2013-01-07 16:33:00,
2013-01-07 11:38:00,48.0,35.6,30.36,SW,225,4.0,4.0,62,0.00,,---,0.00,VWS V14.01,2013-01-07 16:38:00,
2013-01-07 11:43:00,47.0,35.1,30.36,SSW,202,2.0,3.0,63,0.00,,---,0.00,VWS V14.01,2013-01-07 16:43:00,
2013-01-07 11:48:00,47.0,33.8,30.36,South,180,0.0,5.0,60,0.00,,---,0.00,VWS V14.01,2013-01-07 16:48:00,
2013-01-07 11:53:00,47.0,33.8,30.35,South,180,0.0,6.0,60,0.00,,---,0.00,VWS V14.01,2013-01-07 16:53:00,
2013-01-07 11:58:00,48.0,33.9,30.35,South,180,1.0,7.0,58,0.00,,---,0.00,VWS V14.01,2013-01-07 16:58:00,
2013-01-07 12:03:00,48.0,33.1,30.35,SSW,202,1.0,6.0,56,0.00,,---,0.00,VWS V14.01,2013-01-07 17:03:00,
2013-01-07 12:08:00,48.0,33.5,30.35,West,270,0.0,1.0,57,0.00,,---,0.00,VWS V14.01,2013-01-07 17:08:00,
2013-01-07 12:13:00,48.0,33.1,30.36,SW,225,3.0,5.0,56,0.00,,---,0.00,VWS V14.01,2013-01-07 17:13:00,
2013-01-07 12:18:00,48.0,32.6,30.36,SW,225,0.0,0.0,55,0.00,,---,0.00,VWS V14.01,2013-01-07 17:18:00,
2013-01-07 12:23:00,49.0,32.6,30.36,SSW,202,0.0,5.0,53,0.00,,---,0.00,VWS V14.01,2013-01-07 17:23:00,
2013-01-07 12:28:00,49.0,33.1,30.36,SW,225,3.0,3.0,54,0.00,,---,0.00,VWS V14.01,2013-01-07 17:28:00,
2013-01-07 12:33:00,49.0,32.6,30.36,SW,225,0.0,0.0,53,0.00,,---,0.00,VWS V14.01,2013-01-07 17:33:00,
2013-01-07 12:38:00,49.0,32.6,30.36,SW,225,2.0,5.0,53,0.00,,---,0.00,VWS V14.01,2013-01-07 17:38:00,
2013-01-07 12:43:00,49.0,32.6,30.36,SW,225,0.0,3.0,53,0.00,,---,0.00,VWS V14.01,2013-01-07 17:43:00,
2013-01-07 12:48:00,48.0,31.7,30.36,WSW,247,0.0,0.0,53,0.00,,---,0.00,VWS V14.01,2013-01-07 17:48:00,
2013-01-07 12:53:00,49.0,32.2,30.36,SSW,202,0.0,5.0,52,0.00,,---,0.00,VWS V14.01,2013-01-07 17:53:00,
2013-01-07 12:58:00,49.0,32.2,30.36,WSW,247,0.0,1.0,52,0.00,,---,0.00,VWS V14.01,2013-01-07 17:58:00,
2013-01-07 13:03:00,49.0,32.2,30.36,SW,225,0.0,7.0,52,0.00,,---,0.00,VWS V14.01,2013-01-07 18:03:00,
2013-01-07 13:08:00,50.0,33.1,30.36,South,180,3.0,4.0,52,0.00,,---,0.00,VWS V14.01,2013-01-07 18:08:00,
2013-01-07 13:13:00,49.0,31.7,30.35,SSW,202,0.0,0.0,51,0.00,,---,0.00,VWS V14.01,2013-01-07 18:13:00,
2013-01-07 13:18:00,49.0,31.2,30.35,SSW,202,5.0,6.0,50,0.00,,---,0.00,VWS V14.01,2013-01-07 18:18:00,
2013-01-07 13:23:00,49.0,31.2,30.35,SW,225,2.0,4.0,50,0.00,,---,0.00,VWS V14.01,2013-01-07 18:23:00,
2013-01-07 13:28:00,48.0,31.2,30.35,South,180,0.0,1.0,52,0.00,,---,0.00,VWS V14.01,2013-01-07 18:28:00,
2013-01-07 13:33:00,48.0,32.6,30.36,South,180,0.0,0.0,55,0.00,,---,0.00,VWS V14.01,2013-01-07 18:33:00,
2013-01-07 13:38:00,49.0,33.5,30.36,SW,225,0.0,2.0,55,0.00,,---,0.00,VWS V14.01,2013-01-07 18:38:00,
2013-01-07 13:43:00,51.0,32.5,30.36,SW,225,0.0,0.0,49,0.00,,---,0.00,VWS V14.01,2013-01-07 18:43:00,
2013-01-07 13:48:00,51.0,31.5,30.36,South,180,3.0,4.0,47,0.00,,---,0.00,VWS V14.01,2013-01-07 18:48:00,
2013-01-07 13:53:00,50.0,31.1,30.35,SSW,202,0.0,0.0,48,0.00,,---,0.00,VWS V14.01,2013-01-07 18:53:00,
2013-01-07 13:58:00,51.0,31.5,30.35,South,180,0.0,0.0,47,0.00,,---,0.00,VWS V14.01,2013-01-07 18:58:00,
2013-01-07 14:03:00,52.0,32.9,30.36,South,180,0.0,0.0,48,0.00,,---,0.00,VWS V14.01,2013-01-07 19:03:00,
2013-01-07 14:08:00,51.0,33.0,30.36,SW,225,0.0,3.0,50,0.00,,---,0.00,VWS V14.01,2013-01-07 19:08:00,
2013-01-07 14:13:00,51.0,32.5,30.35,SSE,157,0.0,3.0,49,0.00,,---,0.00,VWS V14.01,2013-01-07 19:13:00,
2013-01-07 14:18:00,50.0,32.6,30.35,SW,225,3.0,3.0,51,0.00,,---,0.00,VWS V14.01,2013-01-07 19:18:00,
2013-01-07 14:23:00,49.0,32.6,30.35,South,180,0.0,4.0,53,0.00,,---,0.00,VWS V14.01,2013-01-07 19:23:00,
2013-01-07 14:28:00,49.0,33.5,30.35,SSW,202,0.0,0.0,55,0.00,,---,0.00,VWS V14.01,2013-01-07 19:28:00,
2013-01-07 14:33:00,49.0,32.6,30.36,South,180,1.0,3.0,53,0.00,,---,0.00,VWS V14.01,2013-01-07 19:33:00,
2013-01-07 14:38:00,49.0,32.6,30.36,South,180,0.0,2.0,53,0.00,,---,0.00,VWS V14.01,2013-01-07 19:38:00,
2013-01-07 14:43:00,49.0,32.2,30.37,SSW,202,0.0,7.0,52,0.00,,---,0.00,VWS V14.01,2013-01-07 19:43:00,
2013-01-07 14:48:00,48.0,33.1,30.37,SSW,202,0.0,0.0,56,0.00,,---,0.00,VWS V14.01,2013-01-07 19:48:00,
2013-01-07 14:53:00,48.0,31.2,30.37,SSW,202,1.0,4.0,52,0.00,,---,0.00,VWS V14.01,2013-01-07 19:53:00,
2013-01-07 14:58:00,48.0,31.7,30.37,South,180,0.0,0.0,53,0.00,,---,0.00,VWS V14.01,2013-01-07 19:58:00,
2013-01-07 15:03:00,48.0,33.5,30.38,SSW,202,0.0,0.0,57,0.00,,---,0.00,VWS V14.01,2013-01-07 20:03:00,
2013-01-07 15:08:00,48.0,31.7,30.38,SSW,202,0.0,0.0,53,0.00,,---,0.00,VWS V14.01,2013-01-07 20:08:00,
2013-01-07 15:13:00,48.0,32.6,30.38,SE,135,0.0,0.0,55,0.00,,---,0.00,VWS V14.01,2013-01-07 20:13:00,
2013-01-07 15:19:00,48.0,32.2,30.38,SSW,202,0.0,3.0,54,0.00,,---,0.00,VWS V14.01,2013-01-07 20:19:00,
2013-01-07 15:24:00,48.0,33.9,30.38,SSW,202,0.0,0.0,58,0.00,,---,0.00,VWS V14.01,2013-01-07 20:24:00,
2013-01-07 15:29:00,48.0,31.7,30.38,SSW,202,0.0,0.0,53,0.00,,---,0.00,VWS V14.01,2013-01-07 20:29:00,
2013-01-07 15:34:00,48.0,33.5,30.38,SSW,202,0.0,0.0,57,0.00,,---,0.00,VWS V14.01,2013-01-07 20:34:00,
2013-01-07 15:39:00,48.0,32.2,30.38,SSW,202,0.0,3.0,54,0.00,,---,0.00,VWS V14.01,2013-01-07 20:39:00,
2013-01-07 15:44:00,48.0,32.6,30.39,SSE,157,0.0,2.0,55,0.00,,---,0.00,VWS V14.01,2013-01-07 20:44:00,
2013-01-07 15:49:00,47.0,31.2,30.39,SSE,157,1.0,2.0,54,0.00,,---,0.00,VWS V14.01,2013-01-07 20:49:00,
2013-01-07 15:54:00,47.0,31.7,30.39,SSW,202,0.0,0.0,55,0.00,,---,0.00,VWS V14.01,2013-01-07 20:54:00,
2013-01-07 15:59:00,47.0,33.0,30.39,South,180,0.0,0.0,58,0.00,,---,0.00,VWS V14.01,2013-01-07 20:59:00,
2013-01-07 16:04:00,47.0,32.6,30.40,SSW,202,0.0,0.0,57,0.00,,---,0.00,VWS V14.01,2013-01-07 21:04:00,
2013-01-07 16:09:00,46.0,31.2,30.40,SW,225,0.0,0.0,56,0.00,,---,0.00,VWS V14.01,2013-01-07 21:09:00,
2013-01-07 16:14:00,45.0,31.1,30.40,South,180,0.0,2.0,58,0.00,,---,0.00,VWS V14.01,2013-01-07 21:14:00,
2013-01-07 16:19:00,44.0,30.2,30.40,SSW,202,0.0,0.0,58,0.00,,---,0.00,VWS V14.01,2013-01-07 21:19:00,
2013-01-07 16:24:00,44.0,31.0,30.41,South,180,0.0,0.0,60,0.00,,---,0.00,VWS V14.01,2013-01-07 21:24:00,
2013-01-07 16:29:00,43.0,29.7,30.41,SSW,202,0.0,0.0,59,0.00,,---,0.00,VWS V14.01,2013-01-07 21:29:00,
2013-01-07 16:34:00,43.0,30.5,30.42,SW,225,0.0,0.0,61,0.00,,---,0.00,VWS V14.01,2013-01-07 21:34:00,
2013-01-07 16:39:00,42.0,29.9,30.42,SW,225,0.0,0.0,62,0.00,,---,0.00,VWS V14.01,2013-01-07 21:39:00,
2013-01-07 16:44:00,42.0,30.3,30.42,SSW,202,0.0,0.0,63,0.00,,---,0.00,VWS V14.01,2013-01-07 21:44:00,
2013-01-07 16:49:00,41.0,29.8,30.42,SSW,202,0.0,0.0,64,0.00,,---,0.00,VWS V14.01,2013-01-07 21:49:00,
2013-01-07 16:54:00,41.0,29.8,30.43,South,180,0.0,0.0,64,0.00,,---,0.00,VWS V14.01,2013-01-07 21:54:00,
2013-01-07 16:59:00,41.0,30.1,30.43,South,180,0.0,0.0,65,0.00,,---,0.00,VWS V14.01,2013-01-07 21:59:00,
2013-01-07 17:04:00,40.0,29.6,30.44,South,180,0.0,0.0,66,0.00,,---,0.00,VWS V14.01,2013-01-07 22:04:00,
2013-01-07 17:09:00,40.0,29.9,30.44,South,180,0.0,0.0,67,0.00,,---,0.00,VWS V14.01,2013-01-07 22:09:00,
2013-01-07 17:14:00,40.0,29.9,30.44,SSW,202,0.0,0.0,67,0.00,,---,0.00,VWS V14.01,2013-01-07 22:14:00,
2013-01-07 17:19:00,39.0,29.4,30.44,SSW,202,0.0,0.0,68,0.00,,---,0.00,VWS V14.01,2013-01-07 22:19:00,
2013-01-07 17:23:00,39.0,29.7,30.45,SSW,202,0.0,0.0,69,0.00,,---,0.00,VWS V14.01,2013-01-07 22:23:00,
2013-01-07 17:28:00,39.0,29.7,30.45,SSW,202,0.0,0.0,69,0.00,,---,0.00,VWS V14.01,2013-01-07 22:28:00,
2013-01-07 17:33:00,39.0,30.1,30.45,SSW,202,0.0,0.0,70,0.00,,---,0.00,VWS V14.01,2013-01-07 22:33:00,
2013-01-07 17:38:00,38.0,29.1,30.45,SSW,202,0.0,0.0,70,0.00,,---,0.00,VWS V14.01,2013-01-07 22:38:00,
2013-01-07 17:43:00,38.0,29.8,30.45,SSW,202,0.0,0.0,72,0.00,,---,0.00,VWS V14.01,2013-01-07 22:43:00,
2013-01-07 17:48:00,37.0,29.5,30.45,SSW,202,0.0,0.0,74,0.00,,---,0.00,VWS V14.01,2013-01-07 22:48:00,
2013-01-07 17:53:00,37.0,29.8,30.46,SSW,202,0.0,0.0,75,0.00,,---,0.00,VWS V14.01,2013-01-07 22:53:00,
2013-01-07 17:58:00,36.0,29.5,30.46,SSW,202,0.0,0.0,77,0.00,,---,0.00,VWS V14.01,2013-01-07 22:58:00,
2013-01-07 18:03:00,36.0,31.0,30.46,SSW,202,0.0,0.0,82,0.00,,---,0.00,VWS V14.01,2013-01-07 23:03:00,
2013-01-07 18:08:00,36.0,32.2,30.46,SSW,202,0.0,0.0,86,0.00,,---,0.00,VWS V14.01,2013-01-07 23:08:00,
2013-01-07 18:13:00,36.0,31.6,30.46,SSW,202,0.0,0.0,84,0.00,,---,0.00,VWS V14.01,2013-01-07 23:13:00,
2013-01-07 18:18:00,36.0,31.0,30.46,SSW,202,0.0,0.0,82,0.00,,---,0.00,VWS V14.01,2013-01-07 23:18:00,
2013-01-07 18:23:00,35.0,30.4,30.46,SSW,202,0.0,0.0,83,0.00,,---,0.00,VWS V14.01,2013-01-07 23:23:00,
2013-01-07 18:28:00,35.0,30.7,30.46,SSW,202,0.0,0.0,84,0.00,,---,0.00,VWS V14.01,2013-01-07 23:28:00,
2013-01-07 18:33:00,34.0,29.7,30.47,SSW,202,0.0,0.0,84,0.00,,---,0.00,VWS V14.01,2013-01-07 23:33:00,
2013-01-07 18:38:00,34.0,30.5,30.47,SSW,202,0.0,0.0,87,0.00,,---,0.00,VWS V14.01,2013-01-07 23:38:00,
2013-01-07 18:43:00,34.0,30.5,30.47,SSW,202,0.0,0.0,87,0.00,,---,0.00,VWS V14.01,2013-01-07 23:43:00,
2013-01-07 18:48:00,34.0,31.1,30.47,SSW,202,0.0,0.0,89,0.00,,---,0.00,VWS V14.01,2013-01-07 23:48:00,
2013-01-07 18:53:00,33.0,29.8,30.48,SSW,202,0.0,0.0,88,0.00,,---,0.00,VWS V14.01,2013-01-07 23:53:00,
2013-01-07 18:58:00,33.0,30.1,30.48,SSW,202,0.0,0.0,89,0.00,,---,0.00,VWS V14.01,2013-01-07 23:58:00,
2013-01-07 19:03:00,33.0,30.7,30.48,SSW,202,0.0,0.0,91,0.00,,---,0.00,VWS V14.01,2013-01-08 00:03:00,
2013-01-07 19:08:00,33.0,30.7,30.48,SSW,202,0.0,0.0,91,0.00,,---,0.00,VWS V14.01,2013-01-08 00:08:00,
2013-01-07 19:13:00,32.0,29.9,30.48,SSW,202,0.0,0.0,92,0.00,,---,0.00,VWS V14.01,2013-01-08 00:13:00,
2013-01-07 19:18:00,32.0,30.5,30.48,SSW,202,0.0,0.0,94,0.00,,---,0.00,VWS V14.01,2013-01-08 00:18:00,
2013-01-07 19:23:00,32.0,30.5,30.49,SSW,202,0.0,0.0,94,0.00,,---,0.00,VWS V14.01,2013-01-08 00:23:00,
2013-01-07 19:28:00,32.0,30.5,30.49,SSW,202,0.0,0.0,94,0.00,,---,0.00,VWS V14.01,2013-01-08 00:28:00,
2013-01-07 19:33:00,31.0,29.5,30.49,SSW,202,0.0,0.0,94,0.00,,---,0.00,VWS V14.01,2013-01-08 00:33:00,
2013-01-07 19:38:00,31.0,29.7,30.49,SSW,202,0.0,0.0,95,0.00,,---,0.00,VWS V14.01,2013-01-08 00:38:00,
2013-01-07 19:43:00,31.0,29.5,30.48,SSW,202,0.0,0.0,94,0.00,,---,0.00,VWS V14.01,2013-01-08 00:43:00,
2013-01-07 19:48:00,31.0,30.8,30.48,SSW,202,0.0,0.0,99,0.00,,---,0.00,VWS V14.01,2013-01-08 00:48:00,
2013-01-07 19:53:00,31.0,30.2,30.48,SSW,202,0.0,0.0,97,0.00,,---,0.00,VWS V14.01,2013-01-08 00:53:00,
2013-01-07 19:58:00,30.0,29.8,30.48,SSW,202,0.0,0.0,99,0.00,,---,0.00,VWS V14.01,2013-01-08 00:58:00,
2013-01-07 20:03:00,30.0,30.0,30.48,SSW,202,0.0,0.0,100,0.00,,---,0.00,VWS V14.01,2013-01-08 01:03:00,
2013-01-07 20:08:00,30.0,30.0,30.48,SSW,202,0.0,0.0,100,0.00,,---,0.00,VWS V14.01,2013-01-08 01:08:00,
2013-01-07 20:13:00,30.0,30.0,30.48,SSW,202,0.0,0.0,100,0.00,,---,0.00,VWS V14.01,2013-01-08 01:13:00,
2013-01-07 20:18:00,30.0,30.0,30.48,SSW,202,0.0,0.0,100,0.00,,---,0.00,VWS V14.01,2013-01-08 01:18:00,
2013-01-07 20:23:00,30.0,30.0,30.48,SSW,202,0.0,0.0,100,0.00,,---,0.00,VWS V14.01,2013-01-08 01:23:00,
2013-01-07 20:28:00,29.0,29.0,30.48,SSW,202,0.0,0.0,100,0.00,,---,0.00,VWS V14.01,2013-01-08 01:28:00,
2013-01-07 20:33:00,29.0,28.8,30.49,SSW,202,0.0,0.0,99,0.00,,---,0.00,VWS V14.01,2013-01-08 01:33:00,
2013-01-07 20:38:00,29.0,29.0,30.49,SSW,202,0.0,0.0,100,0.00,,---,0.00,VWS V14.01,2013-01-08 01:38:00,
2013-01-07 20:43:00,29.0,29.0,30.48,SSW,202,0.0,0.0,100,0.00,,---,0.00,VWS V14.01,2013-01-08 01:43:00,
2013-01-07 20:48:00,29.0,29.0,30.48,SSW,202,0.0,0.0,100,0.00,,---,0.00,VWS V14.01,2013-01-08 01:48:00,
2013-01-07 20:53:00,28.0,28.0,30.48,SSW,202,0.0,0.0,100,0.00,,---,0.00,VWS V14.01,2013-01-08 01:53:00,
2013-01-07 20:58:00,28.0,28.0,30.48,SSW,202,0.0,0.0,100,0.00,,---,0.00,VWS V14.01,2013-01-08 01:58:00,
2013-01-07 21:03:00,28.0,28.0,30.48,SSW,202,0.0,0.0,100,0.00,,---,0.00,VWS V14.01,2013-01-08 02:03:00,
2013-01-07 21:08:00,28.0,28.0,30.48,SSW,202,0.0,0.0,100,0.00,,---,0.00,VWS V14.01,2013-01-08 02:08:00,
2013-01-07 21:13:00,28.0,28.0,30.48,SSW,202,0.0,0.0,100,0.00,,---,0.00,VWS V14.01,2013-01-08 02:13:00,
2013-01-07 21:18:00,28.0,28.0,30.48,SSW,202,0.0,0.0,100,0.00,,---,0.00,VWS V14.01,2013-01-08 02:18:00,
2013-01-07 21:23:00,28.0,28.0,30.48,SSW,202,0.0,0.0,100,0.00,,---,0.00,VWS V14.01,2013-01-08 02:23:00,
2013-01-07 21:28:00,28.0,28.0,30.48,SE,135,0.0,0.0,100,0.00,,---,0.00,VWS V14.01,2013-01-08 02:28:00,
2013-01-07 21:33:00,28.0,28.0,30.49,SE,135,0.0,0.0,100,0.00,,---,0.00,VWS V14.01,2013-01-08 02:33:00,
2013-01-07 21:38:00,28.0,28.0,30.49,SE,135,0.0,0.0,100,0.00,,---,0.00,VWS V14.01,2013-01-08 02:38:00,
2013-01-07 21:43:00,27.0,27.0,30.49,SSE,157,0.0,0.0,100,0.00,,---,0.00,VWS V14.01,2013-01-08 02:43:00,
2013-01-07 21:48:00,27.0,27.0,30.49,South,180,0.0,0.0,100,0.00,,---,0.00,VWS V14.01,2013-01-08 02:48:00,
2013-01-07 21:53:00,27.0,27.0,30.50,South,180,0.0,0.0,100,0.00,,---,0.00,VWS V14.01,2013-01-08 02:53:00,
2013-01-07 21:58:00,27.0,27.0,30.50,South,180,0.0,0.0,100,0.00,,---,0.00,VWS V14.01,2013-01-08 02:58:00,
2013-01-07 22:03:00,27.0,27.0,30.49,South,180,0.0,0.0,100,0.00,,---,0.00,VWS V14.01,2013-01-08 03:03:00,
2013-01-07 22:08:00,27.0,27.0,30.49,South,180,0.0,0.0,100,0.00,,---,0.00,VWS V14.01,2013-01-08 03:08:00,
2013-01-07 22:13:00,27.0,27.0,30.50,South,180,0.0,0.0,100,0.00,,---,0.00,VWS V14.01,2013-01-08 03:13:00,
2013-01-07 22:18:00,27.0,27.0,30.50,South,180,0.0,0.0,100,0.00,,---,0.00,VWS V14.01,2013-01-08 03:18:00,
2013-01-07 22:23:00,27.0,27.0,30.50,South,180,0.0,0.0,100,0.00,,---,0.00,VWS V14.01,2013-01-08 03:23:00,
2013-01-07 22:28:00,27.0,27.0,30.50,South,180,0.0,0.0,100,0.00,,---,0.00,VWS V14.01,2013-01-08 03:28:00,
2013-01-07 22:33:00,27.0,27.0,30.50,South,180,0.0,0.0,100,0.00,,---,0.00,VWS V14.01,2013-01-08 03:33:00,
2013-01-07 22:38:00,27.0,27.0,30.50,South,180,0.0,0.0,100,0.00,,---,0.00,VWS V14.01,2013-01-08 03:38:00,
2013-01-07 22:43:00,26.0,26.0,30.50,South,180,0.0,0.0,100,0.00,,---,0.00,VWS V14.01,2013-01-08 03:43:00,
2013-01-07 22:48:00,26.0,26.0,30.50,South,180,0.0,0.0,100,0.00,,---,0.00,VWS V14.01,2013-01-08 03:48:00,
2013-01-07 22:53:00,26.0,26.0,30.50,South,180,0.0,0.0,100,0.00,,---,0.00,VWS V14.01,2013-01-08 03:53:00,
2013-01-07 22:58:00,26.0,26.0,30.50,South,180,0.0,0.0,100,0.00,,---,0.00,VWS V14.01,2013-01-08 03:58:00,
2013-01-07 23:03:00,26.0,26.0,30.50,South,180,0.0,0.0,100,0.00,,---,0.00,VWS V14.01,2013-01-08 04:03:00,
2013-01-07 23:08:00,26.0,26.0,30.50,South,180,0.0,0.0,100,0.00,,---,0.00,VWS V14.01,2013-01-08 04:08:00,
2013-01-07 23:13:00,26.0,26.0,30.50,South,180,0.0,0.0,100,0.00,,---,0.00,VWS V14.01,2013-01-08 04:13:00,
2013-01-07 23:18:00,26.0,26.0,30.50,South,180,0.0,0.0,100,0.00,,---,0.00,VWS V14.01,2013-01-08 04:18:00,
2013-01-07 23:23:00,26.0,26.0,30.50,South,180,0.0,0.0,100,0.00,,---,0.00,VWS V14.01,2013-01-08 04:23:00,
2013-01-07 23:28:00,26.0,26.0,30.50,South,180,0.0,0.0,100,0.00,,---,0.00,VWS V14.01,2013-01-08 04:28:00,
2013-01-07 23:33:00,25.0,25.0,30.50,South,180,0.0,0.0,100,0.00,,---,0.00,VWS V14.01,2013-01-08 04:33:00,
2013-01-07 23:38:00,25.0,25.0,30.50,South,180,0.0,0.0,100,0.00,,---,0.00,VWS V14.01,2013-01-08 04:38:00,
2013-01-07 23:43:00,25.0,25.0,30.50,South,180,0.0,0.0,100,0.00,,---,0.00,VWS V14.01,2013-01-08 04:43:00,
2013-01-07 23:48:00,25.0,25.0,30.50,South,180,0.0,0.0,100,0.00,,---,0.00,VWS V14.01,2013-01-08 04:48:00,
2013-01-07 23:53:00,25.0,25.0,30.50,South,180,0.0,0.0,100,0.00,,---,0.00,VWS V14.01,2013-01-08 04:53:00,
2013-01-07 23:58:00,25.0,25.0,30.50,South,180,0.0,0.0,100,0.00,,---,0.00,VWS V14.01,2013-01-08 04:58:00,